EW2964 Weather Reports


Display with metric or nautical units.
time (UTC)temp
F
wind
direction
speed
MPH
gust
MPH
rain 1hr
in
rain 24hr
in
rain mn
in
humidity
%
barometer
mb
20260510043503 45 301 0.0 0.0 0.00 0.00 0.00 94 1013.4
20260510043004 45 269 0.0 0.0 0.00 0.00 0.00 94 1013.3
20260510042507 45 309 0.0 0.0 0.00 0.00 0.00 93 1013.3
20260510042003 45 309 0.0 0.0 0.00 0.00 0.00 93 1013.2
20260510041508 45 309 0.0 0.0 0.00 0.00 0.00 93 1013.1
20260510041003 45 309 0.0 0.0 0.00 0.00 0.00 93 1013.0
20260510040504 46 294 0.0 0.0 0.00 0.00 0.00 94 1013.0
20260510040013 45 294 0.0 0.0 0.00 0.00 0.00 93 1013.0
20260510035504 46 294 0.0 1.0 0.00 0.00 0.00 93 1013.0
20260510035005 46 294 0.0 2.0 0.00 0.00 0.00 92 1013.0
20260510034522 46 280 0.0 2.0 0.00 0.00 0.00 92 1013.0
20260510034006 46 301 0.0 2.0 0.00 0.00 0.00 92 1013.0
20260510033510 46 301 0.0 2.0 0.00 0.00 0.00 92 1013.0
20260510033023 46 301 1.0 2.0 0.00 0.00 0.00 91 1013.0
20260510032503 46 301 0.0 2.0 0.00 0.00 0.00 91 1013.0
20260510032003 47 301 1.0 2.0 0.00 0.00 0.00 91 1012.9
20260510031510 47 301 0.0 0.0 0.00 0.00 0.00 91 1013.0
20260510031003 47 301 0.0 2.0 0.00 0.00 0.00 91 1013.0
20260510030503 47 301 0.0 2.0 0.00 0.00 0.00 90 1013.0
20260510030018 47 301 0.0 2.0 0.00 0.00 0.00 90 1013.0
20260510025506 47 275 0.0 1.0 0.00 0.00 0.00 89 1013.0
20260510025004 48 275 0.0 3.0 0.00 0.00 0.00 89 1013.0
20260510024513 48 275 0.0 4.0 0.00 0.00 0.00 89 1013.0
20260510024006 48 299 1.0 4.0 0.00 0.00 0.00 89 1013.0
20260510023506 48 313 2.0 4.0 0.00 0.00 0.00 88 1012.9
20260510023020 49 313 2.0 3.0 0.00 0.00 0.00 87 1012.9
20260510022507 49 278 0.0 0.0 0.00 0.00 0.00 86 1012.9
20260510022007 49 278 0.0 1.0 0.00 0.00 0.00 85 1012.9
20260510021527 50 278 0.0 2.0 0.00 0.00 0.00 84 1012.8
20260510021007 50 278 0.0 3.0 0.00 0.00 0.00 83 1012.6
20260510020502 51 305 2.0 6.0 0.00 0.00 0.00 83 1012.6
20260510020010 51 288 2.0 6.0 0.00 0.00 0.00 82 1012.6
20260510015503 51 290 2.0 6.0 0.00 0.00 0.00 82 1012.6
20260510015005 51 277 3.0 6.0 0.00 0.00 0.00 82 1012.5
20260510014514 52 294 2.0 6.0 0.00 0.00 0.00 81 1012.5
20260510014004 52 282 2.0 6.0 0.00 0.00 0.00 81 1012.3
20260510013508 52 271 3.0 6.0 0.00 0.00 0.00 81 1012.2
20260510013016 52 289 3.0 6.0 0.00 0.00 0.00 81 1012.0
20260510012506 52 290 2.0 4.0 0.00 0.00 0.00 81 1011.8
20260510012007 52 289 2.0 4.0 0.00 0.00 0.00 81 1011.8
20260510011524 53 296 2.0 3.0 0.00 0.00 0.00 80 1011.7
20260510011006 53 292 2.0 5.0 0.00 0.00 0.00 79 1011.6
20260510010508 54 299 3.0 5.0 0.00 0.00 0.00 77 1011.6
20260510010023 55 317 2.0 4.0 0.00 0.00 0.00 75 1011.4
20260510005508 55 265 2.0 4.0 0.00 0.00 0.00 73 1011.2
20260510005003 56 275 1.0 4.0 0.00 0.00 0.00 71 1011.2
20260510004511 56 269 2.0 4.0 0.00 0.00 0.00 71 1011.1
20260510004004 57 300 2.0 3.0 0.00 0.00 0.00 69 1010.9
20260510003505 58 302 1.0 3.0 0.00 0.00 0.00 67 1010.9
20260510003024 58 224 0.0 4.0 0.00 0.00 0.00 65 1010.9
20260510002505 59 221 1.0 4.0 0.00 0.00 0.00 64 1010.8
20260510002006 59 261 1.0 3.0 0.00 0.00 0.00 63 1010.7
20260510001524 60 257 1.0 3.0 0.00 0.00 0.00 62 1010.7
20260510001007 60 221 1.0 3.0 0.00 0.00 0.00 62 1010.7
20260510000507 61 220 1.0 4.0 0.00 0.00 0.00 61 1010.7
20260510000023 62 256 0.0 6.0 0.00 0.00 0.00 58 1010.6
20260509235506 62 297 2.0 10.0 0.00 0.00 0.00 57 1010.7
20260509235009 62 305 4.0 10.0 0.00 0.00 0.00 56 1010.6
20260509234534 63 311 3.0 9.0 0.00 0.00 0.00 55 1010.6
20260509234008 64 291 3.0 9.0 0.00 0.00 0.00 54 1010.6
20260509233508 65 315 1.0 9.0 0.00 0.00 0.00 54 1010.6
20260509233011 65 328 2.0 8.0 0.00 0.00 0.00 54 1010.4
20260509232505 65 288 2.0 5.0 0.00 0.00 0.00 53 1010.3
20260509232010 65 322 2.0 7.0 0.00 0.00 0.00 52 1010.3
20260509231510 65 305 1.0 9.0 0.00 0.00 0.00 53 1010.3
20260509231004 65 305 3.0 9.0 0.00 0.00 0.00 53 1010.3
20260509230502 64 330 2.0 9.0 0.00 0.00 0.00 53 1010.5
20260509230004 64 321 3.0 9.0 0.00 0.00 0.00 54 1010.6
20260509225505 64 308 2.0 8.0 0.00 0.00 0.00 53 1010.6
20260509225003 64 310 4.0 8.0 0.00 0.00 0.00 53 1010.6
20260509224504 64 277 2.0 12.0 0.00 0.00 0.00 54 1010.7
20260509224003 64 286 2.0 12.0 0.00 0.00 0.00 55 1010.7
20260509223506 64 346 3.0 7.0 0.00 0.00 0.00 53 1010.6
20260509223007 64 292 1.0 6.0 0.00 0.00 0.00 53 1010.6
20260509222503 64 269 2.0 8.0 0.00 0.00 0.00 53 1010.6
20260509222003 64 242 2.0 10.0 0.00 0.00 0.00 53 1010.6
20260509221511 64 340 4.0 10.0 0.00 0.00 0.00 54 1010.6
20260509221007 64 302 4.0 10.0 0.00 0.00 0.00 53 1010.7
20260509220507 64 305 4.0 10.0 0.00 0.00 0.00 53 1010.7
20260509220008 64 311 3.0 9.0 0.00 0.00 0.00 52 1010.7
20260509215506 64 325 2.0 9.0 0.00 0.00 0.00 51 1010.7
20260509215003 64 275 4.0 12.0 0.00 0.00 0.00 50 1010.7
20260509214502 64 310 5.0 12.0 0.00 0.00 0.00 50 1010.7
20260509214007 64 333 6.0 11.0 0.00 0.00 0.00 50 1010.8
20260509213502 64 271 2.0 13.0 0.00 0.00 0.00 51 1010.7
20260509213008 64 349 4.0 13.0 0.00 0.00 0.00 50 1010.6
20260509212503 64 241 5.0 12.0 0.00 0.00 0.00 49 1010.5
20260509212007 65 315 5.0 10.0 0.00 0.00 0.00 50 1010.4
20260509211511 65 254 3.0 14.0 0.00 0.00 0.00 50 1010.3
20260509211005 65 272 4.0 14.0 0.00 0.00 0.00 50 1010.2
20260509210505 65 349 4.0 14.0 0.00 0.00 0.00 50 1010.1
20260509210015 65 328 6.0 14.0 0.00 0.00 0.00 49 1010.0
20260509205508 65 314 5.0 14.0 0.00 0.00 0.00 53 1010.0
20260509205007 65 233 4.0 12.0 0.00 0.00 0.00 50 1009.9
20260509204523 65 294 5.0 12.0 0.00 0.00 0.00 51 1009.9
20260509204003 65 279 3.0 11.0 0.00 0.00 0.00 51 1009.8
20260509203502 65 286 4.0 11.0 0.00 0.00 0.00 50 1009.8
20260509203009 65 12 2.0 10.0 0.00 0.00 0.00 50 1009.8
20260509202503 66 240 5.0 10.0 0.00 0.00 0.00 49 1009.7
20260509202003 66 299 2.0 11.0 0.00 0.00 0.00 51 1009.6
20260509201508 65 336 6.0 13.0 0.00 0.00 0.00 51 1009.6
20260509201008 65 248 6.0 13.0 0.00 0.00 0.00 50 1009.6
20260509200506 65 234 3.0 10.0 0.00 0.00 0.00 50 1009.7
20260509200015 65 290 4.0 11.0 0.00 0.00 0.00 49 1009.6
20260509195506 65 276 6.0 15.0 0.00 0.00 0.00 49 1009.7
20260509195007 65 271 4.0 15.0 0.00 0.00 0.00 49 1009.6
20260509194519 65 263 7.0 15.0 0.00 0.00 0.00 47 1009.7
20260509194012 66 315 3.0 13.0 0.00 0.00 0.00 48 1009.8
20260509193507 66 237 5.0 14.0 0.00 0.00 0.00 46 1009.7
20260509193023 67 280 7.0 14.0 0.00 0.00 0.00 45 1009.7
20260509192503 68 271 7.0 14.0 0.00 0.00 0.00 45 1009.7
20260509192003 67 322 5.0 13.0 0.00 0.00 0.00 46 1009.6
20260509191513 66 174 5.0 13.0 0.00 0.00 0.00 46 1009.7
20260509191005 65 306 7.0 12.0 0.00 0.00 0.00 46 1009.8
20260509190505 65 280 6.0 14.0 0.00 0.00 0.00 46 1009.8
20260509190015 65 254 5.0 17.0 0.00 0.00 0.00 45 1009.9
20260509185505 65 336 11.0 17.0 0.00 0.00 0.00 45 1010.0
20260509185005 65 257 8.0 20.0 0.00 0.00 0.00 45 1010.0
20260509184517 65 259 7.0 20.0 0.00 0.00 0.00 44 1010.0
20260509184008 65 232 4.0 11.0 0.00 0.00 0.00 47 1010.0
20260509183506 65 266 5.0 11.0 0.00 0.00 0.00 45 1009.9
20260509183020 65 227 3.0 10.0 0.00 0.00 0.00 47 1009.9
20260509182506 64 252 3.0 12.0 0.00 0.00 0.00 47 1010.0
20260509182009 64 248 5.0 12.0 0.00 0.00 0.00 48 1010.0
20260509181523 64 312 3.0 12.0 0.00 0.00 0.00 51 1010.0
20260509181010 64 185 3.0 12.0 0.00 0.00 0.00 50 1010.0
20260509180503 64 284 4.0 14.0 0.00 0.00 0.00 49 1010.1
20260509180008 64 180 5.0 14.0 0.00 0.00 0.00 50 1010.2
20260509175505 64 279 1.0 9.0 0.00 0.00 0.00 55 1010.2
20260509175006 64 342 2.0 11.0 0.00 0.00 0.00 52 1010.2
20260509174514 64 167 4.0 11.0 0.00 0.00 0.00 53 1010.3
20260509174005 64 202 3.0 9.0 0.00 0.00 0.00 54 1010.3
20260509173505 64 308 3.0 9.0 0.00 0.00 0.00 54 1010.3
20260509173020 64 100 4.0 8.0 0.00 0.00 0.00 54 1010.3
20260509172509 63 324 2.0 8.0 0.00 0.00 0.00 56 1010.4
20260509172010 63 244 3.0 8.0 0.00 0.00 0.00 56 1010.7
20260509171522 63 114 3.0 8.0 0.00 0.00 0.00 56 1010.6
20260509171014 62 254 1.0 7.0 0.00 0.00 0.00 57 1010.7
20260509170510 62 117 3.0 8.0 0.00 0.00 0.00 56 1010.7
20260509170036 62 232 4.0 8.0 0.00 0.00 0.00 56 1010.8
20260509165509 62 156 1.0 7.0 0.00 0.00 0.00 57 1010.8
20260509165005 62 266 0.0 7.0 0.00 0.00 0.00 57 1010.9
20260509164513 61 276 2.0 8.0 0.00 0.00 0.00 59 1010.9
20260509164009 61 220 3.0 8.0 0.00 0.00 0.00 57 1010.9
20260509163505 61 202 1.0 8.0 0.00 0.00 0.00 58 1011.0
20260509163018 61 197 4.0 8.0 0.00 0.00 0.00 57 1010.9
20260509162507 61 237 3.0 4.0 0.00 0.00 0.00 56 1011.0
20260509162006 61 305 1.0 4.0 0.00 0.00 0.00 58 1010.9
20260509161527 60 294 2.0 4.0 0.00 0.00 0.00 59 1010.9
20260509161011 60 309 1.0 7.0 0.00 0.00 0.00 57 1010.9
20260509160506 60 242 2.0 7.0 0.00 0.00 0.00 56 1010.9
20260509160032 60 239 1.0 5.0 0.00 0.00 0.00 58 1010.9
20260509155510 60 196 1.0 4.0 0.00 0.00 0.00 57 1011.0
20260509155008 60 213 1.0 8.0 0.00 0.00 0.00 56 1010.9
20260509154526 60 311 3.0 8.0 0.00 0.00 0.00 56 1011.0
20260509154010 60 270 2.0 4.0 0.00 0.00 0.00 56 1011.0
20260509153512 60 259 2.0 5.0 0.00 0.00 0.00 57 1011.1
20260509153014 60 352 2.0 12.0 0.00 0.00 0.00 58 1011.1
20260509152505 59 347 4.0 12.0 0.00 0.00 0.00 57 1011.1
20260509152006 60 323 3.0 15.0 0.00 0.00 0.00 58 1011.1
20260509151518 59 264 5.0 15.0 0.00 0.00 0.00 56 1011.1
20260509151007 59 323 7.0 12.0 0.00 0.00 0.00 59 1011.2
20260509150509 59 305 6.0 19.0 0.00 0.00 0.00 57 1011.2
20260509150023 59 315 7.0 19.0 0.00 0.00 0.00 57 1011.2
20260509145506 60 311 6.0 12.0 0.00 0.00 0.00 58 1011.2
20260509145006 60 315 5.0 12.0 0.00 0.00 0.00 57 1011.0
20260509144531 60 319 8.0 12.0 0.00 0.00 0.00 56 1010.9
20260509144010 60 310 8.0 12.0 0.00 0.00 0.00 56 1011.0
20260509143508 60 267 3.0 10.0 0.00 0.00 0.00 55 1010.7
20260509143027 60 254 4.0 10.0 0.00 0.00 0.00 54 1010.7
20260509142501 61 200 3.0 11.0 0.00 0.00 0.00 53 1010.7
20260509142002 61 287 4.0 11.0 0.00 0.00 0.00 55 1010.7
20260509141503 61 286 4.0 8.0 0.00 0.00 0.00 55 1010.5
20260509141003 60 233 2.0 9.0 0.00 0.00 0.00 54 1010.6
20260509140502 60 271 5.0 9.0 0.00 0.00 0.00 56 1010.6
20260509140002 59 242 1.0 7.0 0.00 0.00 0.00 56 1010.5
20260509135506 59 273 2.0 9.0 0.00 0.00 0.00 57 1010.5
20260509135002 58 313 3.0 10.0 0.00 0.00 0.00 57 1010.6
20260509134506 58 219 3.0 10.0 0.00 0.00 0.00 60 1010.6
20260509134002 57 223 5.0 9.0 0.00 0.00 0.00 64 1010.7
20260509133503 57 158 3.0 7.0 0.00 0.00 0.00 67 1010.8
20260509133005 56 144 1.0 7.0 0.00 0.00 0.00 65 1011.0
20260509132502 56 135 3.0 5.0 0.00 0.00 0.00 65 1011.1
20260509132004 55 114 2.0 6.0 0.00 0.00 0.00 67 1011.2
20260509131507 54 117 3.0 6.0 0.00 0.00 0.00 67 1011.2
20260509131006 53 138 3.0 5.0 0.00 0.00 0.00 69 1011.3
20260509130502 53 132 2.0 4.0 0.00 0.00 0.00 72 1011.4
20260509130003 52 131 3.0 4.0 0.00 0.00 0.00 72 1011.3
20260509125512 52 155 1.0 3.0 0.00 0.00 0.00 73 1011.3
20260509125003 52 98 1.0 4.0 0.00 0.00 0.00 74 1011.4
20260509124505 51 136 2.0 6.0 0.00 0.00 0.00 75 1011.4
20260509124003 51 130 2.0 6.0 0.00 0.00 0.00 74 1011.3
20260509123503 51 113 2.0 4.0 0.00 0.00 0.00 74 1011.3
20260509123016 51 103 1.0 3.0 0.00 0.00 0.00 75 1011.4
20260509122503 51 122 1.0 2.0 0.00 0.00 0.00 76 1011.4
20260509122004 50 59 0.0 2.0 0.00 0.00 0.00 76 1011.3
20260509121507 50 57 0.0 2.0 0.00 0.00 0.00 78 1011.3
20260509121006 49 80 0.0 2.0 0.00 0.00 0.00 77 1011.4
20260509120505 49 146 0.0 3.0 0.00 0.00 0.00 79 1011.3
20260509120007 49 146 0.0 4.0 0.00 0.00 0.00 80 1011.4
20260509115502 48 155 1.0 4.0 0.00 0.00 0.00 80 1011.4
20260509115003 48 150 1.0 4.0 0.00 0.00 0.00 81 1011.4
20260509114503 48 136 2.0 5.0 0.00 0.00 0.00 81 1011.5
20260509114005 48 132 2.0 6.0 0.00 0.00 0.00 83 1011.6
20260509113503 48 146 3.0 5.0 0.00 0.00 0.00 82 1011.5
20260509113006 48 137 1.0 3.0 0.00 0.00 0.00 83 1011.6
20260509112503 48 313 0.0 2.0 0.00 0.00 0.00 85 1011.7
20260509112005 48 313 0.0 2.0 0.00 0.00 0.00 84 1011.6
20260509111507 47 313 0.0 0.0 0.00 0.00 0.00 85 1011.6
20260509111006 47 313 0.0 1.0 0.00 0.00 0.00 85 1011.5
20260509110504 47 313 0.0 1.0 0.00 0.00 0.00 85 1011.4
20260509110011 47 313 0.0 1.0 0.00 0.00 0.00 85 1011.4
20260509105505 47 313 0.0 1.0 0.00 0.00 0.00 85 1011.4
20260509105007 47 313 0.0 2.0 0.00 0.00 0.00 85 1011.4
20260509104510 47 313 0.0 2.0 0.00 0.00 0.00 84 1011.3
20260509104002 47 303 0.0 2.0 0.00 0.00 0.00 85 1011.3
20260509103503 47 310 0.0 2.0 0.00 0.00 0.00 84 1011.2
20260509103003 47 310 0.0 3.0 0.00 0.00 0.00 85 1011.1
20260509102503 47 310 1.0 3.0 0.00 0.00 0.00 85 1011.1
20260509102004 47 305 1.0 3.0 0.00 0.00 0.00 86 1011.1
20260509101508 47 305 1.0 3.0 0.00 0.00 0.00 84 1011.2
20260509101005 47 311 0.0 0.0 0.00 0.00 0.00 84 1011.2
20260509100502 47 311 0.0 0.0 0.00 0.00 0.00 83 1011.1
20260509100011 48 311 0.0 0.0 0.00 0.00 0.00 84 1011.1
20260509095506 48 311 0.0 0.0 0.00 0.00 0.00 83 1011.0
20260509095004 48 311 0.0 0.0 0.00 0.00 0.00 82 1011.1
20260509094511 48 311 0.0 1.0 0.00 0.00 0.00 82 1011.1
20260509094007 48 311 0.0 2.0 0.00 0.00 0.00 82 1011.2
20260509093509 48 311 0.0 2.0 0.00 0.00 0.00 82 1011.3
20260509093015 48 311 1.0 3.0 0.00 0.00 0.00 81 1011.2
20260509092505 48 305 1.0 4.0 0.00 0.00 0.00 81 1011.2
20260509092008 49 305 1.0 4.0 0.00 0.00 0.00 80 1011.3
20260509091504 48 279 2.0 4.0 0.00 0.00 0.00 78 1011.3
20260509091003 48 275 1.0 3.0 0.00 0.00 0.00 80 1011.3
20260509090502 48 298 1.0 3.0 0.00 0.00 0.00 83 1011.4
20260509090008 48 311 1.0 3.0 0.00 0.00 0.00 83 1011.3
20260509085502 48 311 2.0 3.0 0.00 0.00 0.00 83 1011.2
20260509085006 48 309 1.0 3.0 0.00 0.00 0.00 81 1011.3
20260509084514 48 309 1.0 3.0 0.00 0.00 0.00 81 1011.4
20260509084009 48 296 0.0 1.0 0.00 0.00 0.00 81 1011.3
20260509083510 48 290 0.0 1.0 0.00 0.00 0.00 81 1011.4
20260509083017 48 306 0.0 2.0 0.00 0.00 0.00 81 1011.3
20260509082506 48 306 0.0 2.0 0.00 0.00 0.00 81 1011.3
20260509082007 49 306 0.0 2.0 0.00 0.00 0.00 81 1011.5
20260509081517 49 306 0.0 3.0 0.00 0.00 0.00 80 1011.5
20260509081008 49 306 0.0 3.0 0.00 0.00 0.00 80 1011.6
20260509080507 48 302 2.0 3.0 0.00 0.00 0.00 80 1011.7
20260509080021 48 282 1.0 3.0 0.00 0.00 0.00 81 1011.7
20260509075503 48 302 1.0 3.0 0.00 0.00 0.00 82 1011.5
20260509075004 48 293 1.0 3.0 0.00 0.00 0.00 82 1011.5
20260509074512 48 293 1.0 4.0 0.00 0.00 0.00 83 1011.5
20260509074006 48 306 2.0 4.0 0.00 0.00 0.00 83 1011.5
20260509073509 48 302 1.0 2.0 0.00 0.00 0.00 82 1011.5
20260509073029 48 302 0.0 2.0 0.00 0.00 0.00 82 1011.5
20260509072509 48 302 1.0 2.0 0.00 0.00 0.00 82 1011.5
20260509072007 48 302 1.0 3.0 0.00 0.00 0.00 82 1011.5
20260509071521 48 302 0.0 3.0 0.00 0.00 0.00 82 1011.5
20260509071008 48 302 0.0 2.0 0.00 0.00 0.00 82 1011.5
20260509070508 48 298 0.0 2.0 0.00 0.00 0.00 81 1011.6
20260509070022 48 296 0.0 3.0 0.00 0.00 0.00 81 1011.6
20260509065506 48 296 0.0 3.0 0.00 0.00 0.00 82 1011.6
20260509065006 48 315 1.0 3.0 0.00 0.00 0.00 82 1011.7
20260509064524 47 306 1.0 3.0 0.00 0.00 0.00 82 1011.7
20260509064004 47 284 0.0 3.0 0.00 0.00 0.00 82 1011.7
20260509063503 47 303 1.0 3.0 0.00 0.00 0.00 82 1011.6
20260509063023 47 303 1.0 2.0 0.00 0.00 0.00 81 1011.7
20260509062508 47 303 0.0 2.0 0.00 0.00 0.00 81 1011.9
20260509062007 47 303 0.0 2.0 0.00 0.00 0.00 81 1011.9
20260509061521 47 303 0.0 1.0 0.00 0.00 0.00 83 1011.9
20260509061007 47 303 0.0 2.0 0.00 0.00 0.00 82 1011.9
20260509060506 47 303 0.0 2.0 0.00 0.00 0.00 82 1011.9
20260509060034 47 303 0.0 2.0 0.00 0.00 0.00 82 1012.0
20260509055511 47 303 0.0 2.0 0.00 0.00 0.00 82 1012.2
20260509055008 47 303 0.0 2.0 0.00 0.00 0.00 82 1012.1
20260509054524 48 303 0.0 2.0 0.00 0.00 0.00 81 1012.2
20260509054009 48 303 0.0 2.0 0.00 0.00 0.00 80 1012.2
20260509053506 48 303 0.0 2.0 0.00 0.00 0.00 79 1012.3
20260509053030 48 303 0.0 1.0 0.00 0.00 0.00 78 1012.2
20260509052504 49 303 0.0 2.0 0.00 0.00 0.00 79 1012.2
20260509052007 49 303 0.0 2.0 0.00 0.00 0.00 79 1012.3
20260509051517 49 303 1.0 2.0 0.00 0.00 0.00 79 1012.3
20260509051007 49 303 1.0 2.0 0.00 0.00 0.00 80 1012.3
20260509050507 49 303 0.0 2.0 0.00 0.00 0.00 80 1012.4
20260509050022 49 303 1.0 3.0 0.00 0.00 0.00 80 1012.4
20260509045510 49 303 0.0 3.0 0.00 0.00 0.00 80 1012.3
20260509045010 49 303 1.0 3.0 0.00 0.00 0.00 79 1012.4
20260509044534 49 303 0.0 2.0 0.00 0.00 0.00 78 1012.5
20260509044008 50 303 0.0 0.0 0.00 0.00 0.00 77 1012.4